FW5336 Weather Reports


Display with metric or nautical units.
time (UTC)temp
F
wind
direction
speed
MPH
gust
MPH
rain 1hr
in
rain 24hr
in
rain mn
in
humidity
%
barometer
mb
20260507033623 51 244 0.0 2.0 0.00 0.00 0.00 51
20260507033120 51 257 0.0 0.0 0.00 0.00 0.00 51
20260507032617 51 262 0.0 1.0 0.00 0.00 0.00 51
20260507032113 51 258 0.0 1.0 0.00 0.00 0.00 50
20260507031610 51 248 0.0 1.0 0.00 0.00 0.00 50
20260507031107 51 244 0.0 1.0 0.00 0.00 0.00 50
20260507030603 51 263 0.0 1.0 0.00 0.00 0.00 50
20260507030101 51 270 1.0 1.0 0.00 0.00 0.00 51
20260507025558 51 259 0.0 1.0 0.00 0.00 0.00 51
20260507025055 50 277 1.0 1.0 0.00 0.00 0.00 53
20260507024553 50 238 0.0 0.0 0.00 0.00 0.00 54
20260507024050 51 238 0.0 0.0 0.00 0.00 0.00 52
20260507023545 51 237 0.0 0.0 0.00 0.00 0.00 52
20260507023043 51 234 0.0 0.0 0.00 0.00 0.00 52
20260507022540 51 234 0.0 0.0 0.00 0.00 0.00 51
20260507022035 51 233 0.0 0.0 0.00 0.00 0.00 50
20260507021531 51 235 0.0 0.0 0.00 0.00 0.00 50
20260507021028 51 234 0.0 0.0 0.00 0.00 0.00 49
20260507020526 51 228 0.0 1.0 0.00 0.00 0.00 49
20260507020022 52 247 0.0 0.0 0.00 0.00 0.00 49
20260507015520 52 254 0.0 0.0 0.00 0.00 0.00 48
20260507015018 52 256 0.0 1.0 0.00 0.00 0.00 48
20260507014514 52 261 0.0 1.0 0.00 0.00 0.00 48
20260507014010 52 244 0.0 0.0 0.00 0.00 0.00 48
20260507013507 52 257 0.0 0.0 0.00 0.00 0.00 47
20260507013004 52 261 0.0 1.0 0.00 0.00 0.00 47
20260507012501 52 257 0.0 0.0 0.00 0.00 0.00 48
20260507011957 52 258 0.0 0.0 0.00 0.00 0.00 47
20260507011455 52 258 0.0 0.0 0.00 0.00 0.00 48
20260507010950 52 258 0.0 0.0 0.00 0.00 0.00 47
20260507010445 52 253 0.0 0.0 0.00 0.00 0.00 47
20260507005942 52 258 0.0 0.0 0.00 0.00 0.00 47
20260507005439 53 266 0.0 1.0 0.00 0.00 0.00 46
20260507004935 53 257 0.0 1.0 0.00 0.00 0.00 46
20260507004432 53 255 0.0 0.0 0.00 0.00 0.00 46
20260507003930 53 254 0.0 1.0 0.00 0.00 0.00 46
20260507003425 53 253 0.0 1.0 0.00 0.00 0.00 44
20260507002920 53 252 0.0 1.0 0.00 0.00 0.00 44
20260507002417 54 252 0.0 0.0 0.00 0.00 0.00 44
20260507001914 53 288 2.0 3.0 0.00 0.00 0.00 43
20260507001410 54 265 0.0 1.0 0.00 0.00 0.00 44
20260507000908 54 252 0.0 1.0 0.00 0.00 0.00 44
20260507000405 54 270 1.0 2.0 0.00 0.00 0.00 43
20260506235859 54 302 1.0 1.0 0.00 0.00 0.00 44
20260506235357 54 264 0.0 2.0 0.00 0.00 0.00 44
20260506234852 54 257 0.0 1.0 0.00 0.00 0.00 44
20260506234350 54 249 0.0 2.0 0.00 0.00 0.00 44
20260506233848 54 281 0.0 2.0 0.00 0.00 0.00 43
20260506233343 55 287 1.0 2.0 0.00 0.00 0.00 42
20260506232841 55 252 1.0 1.0 0.00 0.00 0.00 44
20260506232336 55 261 0.0 1.0 0.00 0.00 0.00 43
20260506231832 55 251 1.0 2.0 0.00 0.00 0.00 43
20260506231331 55 294 1.0 3.0 0.00 0.00 0.00 44
20260506230828 55 266 0.0 1.0 0.00 0.00 0.00 42
20260506230325 55 300 2.0 3.0 0.00 0.00 0.00 42
20260506225820 54 320 3.0 5.0 0.00 0.00 0.00 43
20260506225318 55 262 2.0 6.0 0.00 0.00 0.00 42
20260506224815 55 253 3.0 5.0 0.00 0.00 0.00 42
20260506224312 56 283 1.0 1.0 0.00 0.00 0.00 42
20260506223808 56 240 1.0 2.0 0.00 0.00 0.00 42
20260506223303 55 258 0.0 5.0 0.00 0.00 0.00 42
20260506222800 56 240 2.0 3.0 0.00 0.00 0.00 41
20260506222255 56 323 4.0 5.0 0.00 0.00 0.00 40
20260506221749 56 339 3.0 5.0 0.00 0.00 0.00 40
20260506221246 56 340 3.0 7.0 0.00 0.00 0.00 41
20260506220743 56 292 2.0 5.0 0.00 0.00 0.00 40
20260506220238 57 313 2.0 6.0 0.00 0.00 0.00 41
20260506215735 57 270 2.0 3.0 0.00 0.00 0.00 40
20260506215231 57 247 0.0 2.0 0.00 0.00 0.00 41
20260506214727 57 355 5.0 6.0 0.00 0.00 0.00 40
20260506214225 58 252 2.0 3.0 0.00 0.00 0.00 41
20260506213723 57 236 3.0 6.0 0.00 0.00 0.00 40
20260506213220 55 355 5.0 6.0 0.00 0.00 0.00 40
20260506212717 55 294 2.0 6.0 0.00 0.00 0.00 42
20260506212212 55 252 2.0 3.0 0.00 0.00 0.00 42
20260506211708 56 322 2.0 7.0 0.00 0.00 0.00 42
20260506211204 56 267 1.0 3.0 0.00 0.00 0.00 43
20260506210702 57 271 1.0 5.0 0.00 0.00 0.00 43
20260506210158 57 319 4.0 5.0 0.00 0.00 0.00 40
20260506205655 56 266 2.0 6.0 0.00 0.00 0.00 40
20260506205150 55 239 1.0 5.0 0.00 0.00 0.00 43
20260506204648 56 248 0.0 6.0 0.00 0.00 0.00 41
20260506204145 55 294 1.0 5.0 0.00 0.00 0.00 42
20260506203643 55 289 3.0 5.0 0.00 0.00 0.00 43
20260506203140 55 280 3.0 7.0 0.00 0.00 0.00 43
20260506202638 57 293 4.0 7.0 0.00 0.00 0.00 40
20260506202133 57 300 2.0 5.0 0.00 0.00 0.00 40
20260506201631 58 325 2.0 7.0 0.00 0.00 0.00 39
20260506201127 58 316 3.0 6.0 0.00 0.00 0.00 40
20260506200624 57 258 5.0 8.0 0.00 0.00 0.00 41
20260506200120 57 322 1.0 3.0 0.00 0.00 0.00 42
20260506195617 57 325 3.0 5.0 0.00 0.00 0.00 43
20260506195113 55 335 4.0 6.0 0.00 0.00 0.00 41
20260506194611 55 319 3.0 5.0 0.00 0.00 0.00 44
20260506194107 55 296 2.0 3.0 0.00 0.00 0.00 44
20260506193605 56 245 1.0 5.0 0.00 0.00 0.00 42
20260506193102 55 297 3.0 5.0 0.00 0.00 0.00 44
20260506192559 56 325 6.0 8.0 0.00 0.00 0.00 41
20260506192054 56 321 4.0 5.0 0.00 0.00 0.00 41
20260506191551 59 333 5.0 7.0 0.00 0.00 0.00 40
20260506191047 59 6 3.0 6.0 0.00 0.00 0.00 42
20260506190545 57 308 2.0 3.0 0.00 0.00 0.00 42
20260506190042 56 294 3.0 8.0 0.00 0.00 0.00 42
20260506185539 56 291 3.0 7.0 0.00 0.00 0.00 41
20260506185035 56 254 3.0 7.0 0.00 0.00 0.00 44
20260506184533 55 29 2.0 5.0 0.00 0.00 0.00 45
20260506184030 55 322 4.0 8.0 0.00 0.00 0.00 43
20260506183526 55 241 4.0 5.0 0.00 0.00 0.00 44
20260506183023 55 328 4.0 5.0 0.00 0.00 0.00 45
20260506182520 55 262 1.0 5.0 0.00 0.00 0.00 44
20260506182017 55 351 2.0 5.0 0.00 0.00 0.00 45
20260506181515 55 313 6.0 11.0 0.00 0.00 0.00 45
20260506181012 55 331 3.0 7.0 0.00 0.00 0.00 47
20260506180508 55 239 1.0 3.0 0.00 0.00 0.00 44
20260506180006 55 273 3.0 7.0 0.00 0.00 0.00 44
20260506175501 54 197 1.0 5.0 0.00 0.00 0.00 48
20260506174958 53 281 3.0 6.0 0.00 0.00 0.00 47
20260506174456 53 265 1.0 2.0 0.00 0.00 0.00 48
20260506173952 53 297 3.0 5.0 0.00 0.00 0.00 45
20260506173450 54 261 2.0 5.0 0.00 0.00 0.00 45
20260506172946 54 300 2.0 6.0 0.00 0.00 0.00 45
20260506172444 54 264 2.0 9.0 0.00 0.00 0.00 44
20260506171940 53 317 3.0 6.0 0.00 0.00 0.00 45
20260506171438 54 308 1.0 5.0 0.00 0.00 0.00 44
20260506170935 54 321 2.0 9.0 0.00 0.00 0.00 46
20260506170431 56 317 6.0 7.0 0.00 0.00 0.00 43
20260506165924 55 316 3.0 3.0 0.00 0.00 0.00 45
20260506165423 54 297 4.0 6.0 0.00 0.00 0.00 45
20260506164918 55 355 4.0 6.0 0.00 0.00 0.00 43
20260506164415 55 281 2.0 3.0 0.00 0.00 0.00 45
20260506163914 55 260 2.0 5.0 0.00 0.00 0.00 46
20260506163407 55 289 3.0 3.0 0.00 0.00 0.00 44
20260506162902 56 300 2.0 6.0 0.00 0.00 0.00 44
20260506162400 57 250 1.0 5.0 0.00 0.00 0.00 45
20260506161852 57 266 2.0 3.0 0.00 0.00 0.00 45
20260506161349 56 231 3.0 6.0 0.00 0.00 0.00 47
20260506160842 57 317 3.0 5.0 0.00 0.00 0.00 47
20260506160338 56 1 2.0 13.0 0.00 0.00 0.00 49
20260506155837 57 252 4.0 7.0 0.00 0.00 0.00 47
20260506155333 57 268 1.0 6.0 0.00 0.00 0.00 47
20260506153445 55 218 1.0 2.0 0.00 0.00 0.00 46
20260506152943 55 341 2.0 6.0 0.00 0.00 0.00 47
20260506152439 56 317 4.0 5.0 0.00 0.00 0.00 45
20260506151938 57 250 3.0 3.0 0.00 0.00 0.00 44
20260506151435 57 302 3.0 6.0 0.00 0.00 0.00 44
20260506150932 56 250 4.0 6.0 0.00 0.00 0.00 44
20260506150428 56 252 2.0 5.0 0.00 0.00 0.00 50
20260506145925 55 261 0.0 3.0 0.00 0.00 0.00 54
20260506145421 56 342 4.0 6.0 0.00 0.00 0.00 51
20260506144919 55 258 1.0 1.0 0.00 0.00 0.00 50
20260506144415 55 329 2.0 7.0 0.00 0.00 0.00 50
20260506143914 56 312 3.0 6.0 0.00 0.00 0.00 49
20260506143410 55 304 3.0 6.0 0.00 0.00 0.00 51
20260506142909 55 281 3.0 3.0 0.00 0.00 0.00 52
20260506142407 56 245 2.0 2.0 0.00 0.00 0.00 52
20260506141904 55 277 0.0 1.0 0.00 0.00 0.00 50
20260506141402 54 262 1.0 2.0 0.00 0.00 0.00 55
20260506140900 54 53 1.0 3.0 0.00 0.00 0.00 55
20260506140356 54 43 1.0 2.0 0.00 0.00 0.00 54
20260506135854 53 306 1.0 3.0 0.00 0.00 0.00 59
20260506135351 51 230 0.0 2.0 0.00 0.00 0.00 58
20260506134847 52 338 3.0 7.0 0.00 0.00 0.00 58
20260506134343 53 329 4.0 5.0 0.00 0.00 0.00 58
20260506133840 54 312 0.0 3.0 0.00 0.00 0.00 58
20260506133337 54 267 1.0 5.0 0.00 0.00 0.00 59
20260506132833 55 340 3.0 6.0 0.00 0.00 0.00 59
20260506132331 53 243 0.0 3.0 0.00 0.00 0.00 64
20260506131829 53 245 1.0 6.0 0.00 0.00 0.00 61
20260506131325 53 152 0.0 1.0 0.00 0.00 0.00 62
20260506130822 52 268 1.0 2.0 0.00 0.00 0.00 62
20260506130318 51 268 1.0 1.0 0.00 0.00 0.00 62
20260506125817 52 269 2.0 3.0 0.00 0.00 0.00 61
20260506125315 51 297 1.0 2.0 0.00 0.00 0.00 64
20260506124813 52 307 2.0 3.0 0.00 0.00 0.00 63
20260506124309 51 288 1.0 2.0 0.00 0.00 0.00 63
20260506123807 51 309 2.0 3.0 0.00 0.00 0.00 64
20260506123306 50 227 1.0 2.0 0.00 0.00 0.00 65
20260506122802 49 283 1.0 2.0 0.00 0.00 0.00 66
20260506122259 48 248 0.0 3.0 0.00 0.00 0.00 67
20260506121757 48 308 1.0 2.0 0.00 0.00 0.00 67
20260506121254 48 265 1.0 2.0 0.00 0.00 0.00 67
20260506120751 48 276 1.0 2.0 0.00 0.00 0.00 67
20260506120249 48 336 3.0 3.0 0.00 0.00 0.00 67
20260506115746 48 271 2.0 3.0 0.00 0.00 0.00 67
20260506115244 48 270 0.0 1.0 0.00 0.00 0.00 68
20260506114742 48 257 0.0 2.0 0.00 0.00 0.00 68
20260506114239 48 264 0.0 1.0 0.00 0.00 0.00 67
20260506113738 48 268 0.0 1.0 0.00 0.00 0.00 67
20260506113235 48 291 1.0 1.0 0.00 0.00 0.00 67
20260506112731 47 283 1.0 1.0 0.00 0.00 0.00 67
20260506112228 47 260 0.0 1.0 0.00 0.00 0.00 67
20260506111726 47 345 2.0 2.0 0.00 0.00 0.00 67
20260506111224 47 276 0.0 1.0 0.00 0.00 0.00 67
20260506110721 48 283 0.0 1.0 0.00 0.00 0.00 67
20260506110218 48 267 1.0 1.0 0.00 0.00 0.00 67
20260506105715 48 319 1.0 1.0 0.00 0.00 0.00 67
20260506105212 48 277 1.0 2.0 0.00 0.00 0.00 67
20260506104710 48 276 1.0 2.0 0.00 0.00 0.00 66
20260506104207 47 267 1.0 2.0 0.00 0.00 0.00 67
20260506103704 47 257 0.0 1.0 0.00 0.00 0.00 67
20260506103201 47 272 0.0 1.0 0.00 0.00 0.00 67
20260506102659 47 272 0.0 1.0 0.00 0.00 0.00 67
20260506102156 47 267 0.0 1.0 0.00 0.00 0.00 68
20260506101653 47 259 0.0 0.0 0.00 0.00 0.00 68
20260506101150 47 266 0.0 1.0 0.00 0.00 0.00 68
20260506100648 47 266 1.0 1.0 0.00 0.00 0.00 68
20260506100146 47 258 0.0 0.0 0.00 0.00 0.00 69
20260506095644 47 291 1.0 1.0 0.00 0.00 0.00 70
20260506095140 47 274 0.0 1.0 0.00 0.00 0.00 71
20260506094638 47 258 0.0 0.0 0.00 0.00 0.00 70
20260506094136 47 258 0.0 0.0 0.00 0.00 0.00 70
20260506093634 47 245 0.0 0.0 0.00 0.00 0.00 70
20260506093131 47 260 0.0 1.0 0.00 0.00 0.00 71
20260506092629 47 258 0.0 0.0 0.00 0.00 0.00 71
20260506092126 47 229 0.0 1.0 0.00 0.00 0.00 71
20260506091624 47 257 0.0 0.0 0.00 0.00 0.00 70
20260506091121 47 254 0.0 0.0 0.00 0.00 0.00 71
20260506090619 47 254 0.0 0.0 0.00 0.00 0.00 71
20260506090115 47 272 1.0 1.0 0.00 0.00 0.00 70
20260506085612 47 252 0.0 0.0 0.00 0.00 0.00 73
20260506085108 47 257 0.0 0.0 0.00 0.00 0.00 73
20260506084605 47 266 0.0 1.0 0.00 0.00 0.00 74
20260506084101 47 257 0.0 0.0 0.00 0.00 0.00 75
20260506083559 47 254 0.0 1.0 0.00 0.00 0.00 76
20260506083056 47 260 0.0 1.0 0.00 0.00 0.00 78
20260506082552 47 256 0.0 0.0 0.00 0.00 0.00 80
20260506082048 47 258 0.0 1.0 0.00 0.00 0.00 81
20260506081546 47 269 0.0 1.0 0.00 0.00 0.00 83
20260506081043 47 288 1.0 1.0 0.00 0.00 0.00 84
20260506080541 47 288 0.0 0.0 0.00 0.00 0.00 85
20260506073525 47 268 0.0 0.0 0.00 0.00 0.00 85
20260506073021 47 264 0.0 0.0 0.00 0.00 0.00 85
20260506072519 47 260 0.0 1.0 0.00 0.00 0.00 85
20260506072016 47 252 0.0 2.0 0.00 0.00 0.00 85
20260506071514 47 262 0.0 0.0 0.00 0.00 0.00 85
20260506071011 47 260 0.0 0.0 0.00 0.00 0.00 86
20260506070509 47 231 0.0 0.0 0.00 0.00 0.00 86
20260506062446 47 246 0.0 1.0 0.00 0.00 0.00 86
20260506061942 47 251 0.0 1.0 0.00 0.00 0.00 86
20260506061438 47 254 0.0 1.0 0.00 0.00 0.00 86
20260506060936 47 249 0.0 1.0 0.00 0.00 0.00 86
20260506060434 47 254 0.0 1.0 0.00 0.00 0.00 87
20260506051406 48 254 0.0 1.0 0.00 0.00 0.00 85
20260506050903 48 254 0.0 0.0 0.00 0.00 0.00 85
20260506050401 48 249 0.0 1.0 0.00 0.00 0.00 85
20260506044851 48 253 0.0 0.0 0.00 0.00 0.00 85
20260506044349 48 246 0.0 0.0 0.00 0.00 0.00 85
20260506043846 48 247 0.0 1.0 0.00 0.00 0.00 85
20260506043343 48 250 0.0 1.0 0.00 0.00 0.00 86
20260506042841 47 217 1.0 1.0 0.00 0.00 0.00 87
20260506042340 48 227 1.0 1.0 0.00 0.00 0.00 88
20260506041838 48 247 0.0 0.0 0.00 0.00 0.00 89
20260506041335 48 242 0.0 0.0 0.00 0.00 0.00 88
20260506040832 48 244 0.0 0.0 0.00 0.00 0.00 88
20260506040330 48 246 0.0 0.0 0.00 0.00 0.00 87
20260506035826 47 246 0.0 0.0 0.00 0.08 0.08 87
20260506035323 47 246 0.0 0.0 0.00 0.08 0.08 86
20260506034820 47 242 0.0 0.0 0.00 0.08 0.08 86
20260506034317 47 234 0.0 0.0 0.00 0.08 0.08 86